Location: Bazugues
(43.4465°N, 0.3432°E)
Time: 20:17:06
(UTC+00:00)

Cosmos 292 Rocket - Pass Details

Date: 12 January 2026
Orbit: 663 x 681 km, 74.0° (Epoch: 13 February)

Event Time Altitude Azimuth Distance (km) Brightness Sun altitude
Rises 18:26:01 0° 346° (NNW) 3,010 7.1 -18.0°
Reaches altitude 10° 18:28:27 10° 354° (N) 2,092 6.2 -18.4°
Enters shadow 18:32:35 38° 55° (NE) 1,008 4.1 -19.1°
